TimeMST,TemperatureF,Dew PointF,Humidity,Sea Level PressureIn,VisibilityMPH,Wind Direction,Wind SpeedMPH,Gust SpeedMPH,PrecipitationIn,Events,Conditions,WindDirDegrees,DateUTC
12:53 AM,62.1,25.0,24,29.87,10.0,Calm,Calm,-,N/A,,Clear,0,2012-10-03 07:53:00
1:53 AM,59.0,28.0,31,29.88,10.0,South,5.8,-,N/A,,Clear,180,2012-10-03 08:53:00
2:53 AM,57.0,28.9,34,29.88,10.0,South,4.6,-,N/A,,Clear,190,2012-10-03 09:53:00
3:53 AM,57.0,28.0,33,29.88,10.0,South,4.6,-,N/A,,Clear,180,2012-10-03 10:53:00
4:53 AM,55.9,30.0,37,29.90,10.0,SSW,3.5,-,N/A,,Clear,200,2012-10-03 11:53:00
5:53 AM,54.0,30.9,41,29.92,10.0,South,5.8,-,N/A,,Clear,180,2012-10-03 12:53:00
6:53 AM,57.9,28.9,33,29.93,10.0,Calm,Calm,-,N/A,,Clear,0,2012-10-03 13:53:00
7:53 AM,66.0,28.0,24,29.94,6.0,Calm,Calm,-,N/A,,Haze,0,2012-10-03 14:53:00
8:53 AM,73.0,30.0,20,29.95,9.0,NNE,3.5,-,N/A,,Clear,20,2012-10-03 15:53:00
9:53 AM,81.0,28.9,15,29.93,10.0,Calm,Calm,-,N/A,,Clear,0,2012-10-03 16:53:00
10:53 AM,84.0,25.0,12,29.93,10.0,WSW,13.8,27.6,N/A,,Clear,250,2012-10-03 17:53:00
11:53 AM,84.9,25.0,11,29.91,10.0,West,12.7,-,N/A,,Clear,260,2012-10-03 18:53:00
12:53 PM,86.0,25.0,11,29.91,10.0,West,10.4,20.7,N/A,,Clear,260,2012-10-03 19:53:00
1:53 PM,86.0,25.0,11,29.90,10.0,WSW,11.5,21.9,N/A,,Clear,240,2012-10-03 20:53:00
2:53 PM,84.9,25.0,11,29.91,10.0,WSW,12.7,23.0,N/A,,Clear,250,2012-10-03 21:53:00
3:53 PM,84.0,24.1,11,29.91,10.0,SW,10.4,-,N/A,,Clear,230,2012-10-03 22:53:00
4:53 PM,81.0,25.0,13,29.93,10.0,SW,15.0,-,N/A,,Clear,230,2012-10-03 23:53:00
5:53 PM,78.1,28.9,17,29.94,10.0,SW,8.1,-,N/A,,Clear,230,2012-10-04 00:53:00
6:53 PM,71.1,28.9,21,29.95,10.0,SW,5.8,-,N/A,,Clear,220,2012-10-04 01:53:00
7:53 PM,69.1,30.9,24,29.96,10.0,SSW,6.9,-,N/A,,Clear,200,2012-10-04 02:53:00
8:53 PM,64.9,35.1,33,29.96,10.0,Calm,Calm,-,N/A,,Clear,0,2012-10-04 03:53:00
9:53 PM,61.0,36.0,39,29.97,10.0,South,4.6,-,N/A,,Clear,190,2012-10-04 04:53:00
10:53 PM,62.1,35.1,37,29.96,10.0,SSW,5.8,-,N/A,,Clear,200,2012-10-04 05:53:00
11:53 PM,60.1,35.1,39,29.96,10.0,South,6.9,-,N/A,,Clear,190,2012-10-04 06:53:00